Время (UTC), дата Ветер
(°,м/с) 
Видим.   Явления Облачность Т
(°С)
Тd
(°С)
f(%) Тe
(°С)
Pmin
(гПа)
dP
(гПа)
Po
(мм)
O2
(г/м3)
Тmin Tmax R s Состояние
почвы
00 12.06.14 060 (СВ) 10 км  в посл. час морось  10/10 330 м 
[St]
+13.3 +12.2 93 +18  1002.2  -0.9  741  282           
03 12.06.14 070 (В) 10 км    10/10 270 м 
[St]
+13.3 +11.2 87 +17  1001.7  -0.5  741  282  +13.2    0.0    влажная 
06 12.06.14 070 (В) 10 км  слаб. дождь  10/10 270 м 
[Frnb|Ns]
+12.6 +11.1 91 +15  1001.6  -0.5  741  283  +12.6         
09 12.06.14 010 (С) 10 км  {дождь}  10/10 300 м 
[Sc diur, vesp]
+13.4 +11 85 +18  1001.9  0.3  741  282           
12 12.06.14 030 (СВ) 10 км  {дождь}  10/8 330 м средняя 
[Frnb|Ac As]
+13.5 +10.4 82 +16  1002.4  0.4  741  283           
15 12.06.14 360 (С) 10 км  слаб. дождь  10/10 270 м 
[Frnb]
+12.6 +10.6 88 +15  1002.3  0.1  741  283    +14     
18 12.06.14 340 (С) 10 км  {дождь}  10/10 270 м кучево-дожд. 
[Cb calv]
+12.2 +10.6 90 +15  1002  -0.3  741  284           
21 12.06.14 350 (С) 4000 м  слаб. морось  10/10 180 м 
[St]
+11.2 +10 92 +13  1001.4  -0.7  740  285           
00 13.06.14 020 (С) 10 км  {морось}  10/10 720 м 
[Sc]
+10.7 +9.3 91 +12  1000.5  -0.9  740  285           
03 13.06.14 350 (С) 10 км  слаб. морось  10/10 180 м 
[St]
+10.5 +9.2 92 +12  1000.3  -0.2  740  285  +10.5    0.3    влажная 
06 13.06.14 320 (СЗ) 10 км  {морось}  10/10 500 м 
[Sc]
+12 +9.2 83 +12  999.8  -0.4  739  284           
09 13.06.14 050 (СВ) 10 км    10/10 540 м 
[Sc]
+13 +9.4 79 +15  1000  0.3  740  283           
12 13.06.14 340 (С) 10 км    10/10 540 м 
[Sc]
+13.8 +10 78 +15  999.7  -0.3  739  282           
15 13.06.14 350 (С) 10 км    10/10 500 м 
[Sc]
+13.6 +10 79 +15  999.6  0.1  739  282    +14.2  0.0     
18 13.06.14 350 (С) 10 км    10/10 570 м 
[Sc]
+13 +9.9 81 +15  999.3  -0.3  739  282           
21 13.06.14 360 (С) 10 км    10/6 1000 м средняя, верхняя 
[Cu med, cong|Ac lent|Ci ing]
+12.1 +10 87 +14  998.1  -1.3  738  283           
00 14.06.14 350 (С) н/о    н/о 
+11.5 +9.8 89 +13  997.2  -0.8  737  283           
03 14.06.14 350 (С) 20000 м  слаб. дождь  10/10 600 м 
[Sc]
+12 +9.8 86 +13  996.5  -0.7  737  283  +11.3    0.0    влажная 
06 14.06.14 320 (СЗ) 10 км  слаб. ливневой дождь  10/10 300 м кучево-дожд. 
[Cb calv]
+12.2 +10.6 90 +15  996  -0.5  737  282           
09 14.06.14 290 (З) 4000 м  ливневой дождь  10/10 210 м кучево-дожд. 
[Cb calv]
+12.6 +11.3 92 +15  995.8  -0.1  736  281           
12 14.06.14 300 (СЗ) 4000 м  ливневой дождь  10/10 210 м кучево-дожд. 
[Cb calv]
+12.9 +11.6 92 +17  995.6  -0.3  736  281           
15 14.06.14 290 (З) 10 км  слаб. ливневой дождь  10/10 330 м кучево-дожд. 
[Cb calv]
+12.9 +11.4 91 +16  996  0.5  737  281    +13.2     
18 14.06.14 290 (З) 10 км  слаб. дождь{ливн. осадки}  10/10 180 м 
[Frnb|Ns]
+13.2 +12 92 +17  996.2  0.2  737  281           
21 14.06.14 300 (СЗ) 10 км  {дождь}  10/10 300 м 
[St]
+13.2 +11.7 91 +17  995.6  -0.6  736  281           
00 15.06.14 240 (ЮЗ) 10 км  {дождь}  9/0 средняя 
[Ac lent]
+12.9 +11.4 91 +17  995.6  736  281           
03 15.06.14 260 (З) 10 км    3/0 средняя, верхняя 
[Ac lent|Ci fib]
+15.8 +11 73 +20  994.6  -0.8  736  278  +12.8    0.3    влажная 
06 15.06.14 260 (З) 20000 м    8/3 600 м кучево-дожд., средняя, верхняя 
[Cb calv|Ac cast|Ci fib]
+18.3 +10.1 59 +21  994.1  -0.4  735  276           
09 15.06.14 240 (ЮЗ) 3{10}  4000 м  ливневой дождь  9/9 600 м кучево-дожд. 
[Cb calv]
+15.7 +10.3 70 +18  993.8  -0.4  735  278           
12 15.06.14 230 (ЮЗ) 20000 м  {ливн. осадки}  9/8 600 м кучево-дожд., верхняя 
[Cb calv|Ci fib]
+19.1 +13 68 +27  993  -0.7  734  274           
15 15.06.14 300 (СЗ) 3{10}  20000 м    8/5 600 м кучево-дожд., средняя, верхняя 
[Cb calv|Ac cuf|Ci fib]
+17.8 +8.2 53 +18  994  0.9  735  277    +20.3  0.5     
18 15.06.14 300 (СЗ) 5-11{11}  10 км    10/5 930 м кучево-дожд., средняя 
[Cb calv|Ac und]
+14.5 +8.4 67 +14  995.5  1.3  736  280           
21 15.06.14 290 (З) 4{11}  10 км  слаб. ливневой дождь  10/8 500 м кучево-дожд., средняя 
[Cb cap|Ac und]
+12.2 +9.4 83 +13  996.9  1.3  737  283           
00 16.06.14 280 (З) 3{11}  10 км  слаб. дождь{ливн. осадки}  10/10 300 м 
[Frnb|Ns]
+10.6 +8.9 89 +10  998.7  1.7  738  285           
03 16.06.14 290 (З) 5{10}  10 км  {ливн. осадки}  10/9 480 м средняя 
[Frnb|Ac und]
+9.9 +7.6 86 +9  1001.1  2.3  740  286  +9.8      влажная 
06 16.06.14 280 (З) 3{10}  10 км  {ливн. осадки}  10/10 540 м 
[Sc]
+11.2 +7.7 79 +11  1003  1.9  742  286  +9.7         
09 16.06.14 270 (З) 10 км    10/10 960 м 
[Sc]
+14.4 +8.4 67 +14  1004.4  1.6  743  283           
12 16.06.14 280 (З) 10 км    10/8 1200 м средняя, верхняя 
[Cu Sc|Ac lent|Ci fib]
+16 +8.1 59 +16  1005.8  1.4  744  282           
15 16.06.14 280 (З) 10 км    10/4 600 м средняя, верхняя 
[Sc|Ac lent|Ci fib]
+15.9 +7.8 59 +16  1006.6  0.8  744  282    +17.1       
18 16.06.14 250 (З) 10 км    4/0 верхняя 
[Ci fib]
+13.6 +8.7 72 +14  1008.5  1.8  746  285           
21 16.06.14 280 (З) 10 км    6/0 верхняя 
[Ci fib]
+12.2 +8.3 77 +12  1009.3  0.7  746  286           
00 17.06.14 130 (ЮВ) 10 км    5/0 средняя, верхняя 
[Ac As|Ci fib]
+8.9 +7.2 89 +10  1009.8  0.4  747  290           
03 17.06.14 270 (З) 20000 м    4/0 средняя 
[Ac As]
+12 +9.2 83 +13  1010.8  1.1  747  287  +8.7        влажная 
06 17.06.14 230 (ЮЗ) 20000 м    1/1 1000 м 
[Cu hum]
+17.2 +3.9 41 +18  1011.2  0.6  748  283           
09 17.06.14 250 (З) 20000 м    9/9 1000 м 
[Sc diur, vesp]
+17.6 +3.4 39 +18  1011.3  0.1  748  283           
12 17.06.14 250 (З) 20000 м    9/5 1000 м средняя 
[Sc diur, vesp|Ac lent]
+19 +5 40 +19  1011.2  748  281           
15 17.06.14 250 (З) 20000 м    4/3 1000 м средняя 
[Sc diur, vesp|Ac lent]
+18.5 +5.6 43 +19  1010.8  -0.5  748  281    +19.3       
18 17.06.14 150 (ЮВ) 10 км    8/0 средняя, верхняя 
[Ac As|Ci fib]
+15.7 +7.9 60 +17  1010.9  748  284           
21 17.06.14 010 (С) 10 км    8/0 средняя 
[Ac As]
+14.7 +9.2 70 +15  1010.5  -0.4  747  284           
00 18.06.14 130 (ЮВ) 10 км    4/0 средняя 
[Ac As]
+11.7 +9.7 87 +14  1010.3  -0.4  747  287           
03 18.06.14 140 (ЮВ) 20000 м    3/0 средняя, верхняя 
[Ac As|Ci fib]
+15.1 +10.5 74 +18  1010.4  0.2  747  283  +11.5        влажная 
06 18.06.14 180 (Ю) 20000 м    3/1 1000 м средняя, верхняя 
[Cu hum|Ac lent|Ci fib]
+19.2 +9.9 55 +21  1009.5  -0.7  747  279           
09 18.06.14 180 (Ю) 20000 м    8/5 1410 м кучево-дожд., средняя, верхняя 
[Cb calv|Ac lent|Ci fib]
+19.8 +9.6 52 +22  1007.6  -1.8  745  278           
12 18.06.14 180 (Ю) 2{10}  20000 м  в посл. час гроза{ливн. осадки}  10/5 1000 м кучево-дожд., средняя, верхняя 
[Cb calv|Ac cast|Ci fib]
+21.5 +11.2 52 +24  1004.9  -2.5  743  276           
15 18.06.14 270 (З) 1{10}  10 км  {ливн. осадки}  10/8 1470 м средняя, верхняя 
[Sc diur, vesp|Ac cast|Ci fib]
+15.9 +9.8 67 +18  1005.2  743  281    +22.3     
18 18.06.14 тихо ()   10 км  {ливн. осадки}  9/0 средняя 
[Ac As]
+14.9 +9.9 72 +16  1004.1  -1.1  743  282           
21 18.06.14 320 (СЗ) 10 км    6/6 600 м 
[Sc]
+13.8 +9.6 76 +15  1004.4  0.2  743  283           
00 19.06.14 330 (СЗ) 10 км    1/0 средняя 
[Ac lent]
+11 +4 62 +12  1004.7  0.1  743  287           
03 19.06.14 310 (СЗ) 20000 м    9/1 1000 м верхняя 
[Cu med, cong|Ci fib]
+12.7 +5.7 62 +14  1005.2  0.6  743  285  +9.9        влажная 
06 19.06.14 260 (З) 20000 м    9/4 1000 м верхняя 
[Cu med, cong|Cs]
+13.8 +2.4 46 +14  1005  0.1  743  285           
09 19.06.14 280 (З) 20000 м    5/3 1000 м верхняя 
[Cu hum|Cs]
+15 +0.3 37 +15  1004.6  -0.3  743  284           
12 19.06.14 280 (З) 20000 м    8/5 1000 м средняя 
[Ac As]
+16.3 +1 35 +16  1004.8  0.3  743  282           
15 19.06.14 270 (З) 20000 м    8/3 1000 м средняя 
[Cu med, cong|Ac lent]
+16.7 +2 37 +17  1005.6  0.7  744  282    +17.5       
18 19.06.14 250 (З) 10 км    3/0 
[Cu med, cong]
+13.9 +5.8 58 +14  1007.5  1.8  745  285           
21 19.06.14 240 (ЮЗ) 10 км    9/0 средняя 
[Ac As]
+12.6 +6.7 67 +13  1009.1  1.5  746  286           
00 20.06.14 260 (З) н/о    н/о 
+11.3 +7.2 76 +12  1010.7  1.5  747  288           
03 20.06.14 210 (ЮЗ) 20000 м    ясно 
+13.8 +9.1 73 +15  1012.1  1.5  748  285  +10        влажная 
06 20.06.14 250 (З) 20000 м    3/3 600 м верхняя 
[Cu hum|Ci fib]
+16.7 +3.4 41 +18  1012.7  0.8  749  284           
09 20.06.14 230 (ЮЗ) 20000 м    8/6 600 м верхняя 
[Cu hum|Ci fib]
+18.8 +5.2 41 +20  1012.9  0.3  749  282           
12 20.06.14 190 (Ю) 20000 м    9/8 1500 м средняя, верхняя 
[Cu med, cong|Ac lent|Ci fib]
+20.2 +6.5 41 +20  1012.7  -0.2  749  280           
15 20.06.14 160 (Ю) 20000 м    9/6 1000 м средняя, верхняя 
[Cu med, cong|Ac lent|Ci fib]
+19.5 +8.6 49 +21  1012.1  -0.6  749  280    +21.2       
18 20.06.14 160 (Ю) 10 км    8/0 средняя 
[Ac trans]
+16.8 +9.3 61 +18  1012.9  0.7  749  283           
21 20.06.14 160 (Ю) 10 км    8/6 1500 м средняя 
[Sc|Ac trans]
+15.7 +10 69 +18  1013.7  0.7  750  284           
00 21.06.14 130 (ЮВ) 10 км    10/0 средняя 
[Ac und]
+15.9 +10 68 +18  1014  0.3  750  284           
03 21.06.14 140 (ЮВ) 10 км    9/4 1500 м средняя 
[Sc|Ac As]
+16.2 +10.8 70 +20  1014.9  0.9  751  284  +15.4        сухая 
06 21.06.14 190 (Ю) 20000 м    ясно 
+21.2 +8.8 45 +21  1015.3  0.6  751  279           
09 21.06.14 170 (Ю) 20000 м    6/6 1000 м 
[Cu med, cong]
+23.2 +6.4 34 +23  1015  -0.2  751  278           
12 21.06.14 160 (Ю) 20000 м    8/1 1000 м верхняя 
[Cu med, cong|Ci fib]
+23.6 +6.5 33 +24  1013.7  -1.3  750  277           
15 21.06.14 130 (ЮВ) 3{10}  20000 м    9/0 верхняя 
[Ci fib]
+22.7 +5.9 34 +23  1012  -1.7  749  278    +23.9       
18 21.06.14 100 (В) 10 км    4/0 верхняя 
[Ci fib]
+19.5 +8.3 48 +20  1011.3  -0.8  748  280           
21 21.06.14 100 (В) н/о    н/о 
+18.5 +8.8 53 +19  1010.1  -1.2  747  280           
00 22.06.14 100 (В) 10 км  слаб. дождь  10/10 330 м 
[Frnb]
+16.3 +10.5 69 +19  1008.5  -1.7  746  282           
03 22.06.14 040 (СВ) 10 км  ливневой дождь, в посл. час гроза  10/10 480 м кучево-дожд. 
[Cb calv]
+13.5 +12.6 94 +19  1006.6  -2  744  283  +13.5    10    влажная 
06 22.06.14 090 (В) 4-10{16}  20000 м  {гроза, ливн. осадки}  9/0 средняя, верхняя 
[Ac cuf|Ci fib]
+20 +11.3 57 +23  1001.9  -4.3  741  276           
09 22.06.14 090 (В) 2{12}  20000 м    9/3 600 м кучево-дожд., средняя, верхняя 
[Cb calv|Ac cast|Ci ing]
+22.3 +13.9 59 +29  1001.1  -0.7  741  273           
12 22.06.14 170 (Ю) 20000 м    9/0 верхняя 
[Cs]
+23.9 +13.8 53 +31  1000.2  -0.8  740  271           
15 22.06.14 150 (ЮВ) 20000 м    8/6 600 м кучево-дожд., средняя 
[Cb calv|Ac cuf]
+24.3 +15.1 56 +33  1000  -0.1  740  271    +24.9     
18 22.06.14 240 (ЮЗ) 2{11}  10 км  в посл. час ливневой дождь  10/8 1080 м средняя 
[Sc|As op]
+19.4 +16.1 81 +31  1002.1  1.7  741  275           
21 22.06.14 250 (З) 4-10{10}  10 км    10/10 800 м 
[Sc]
+17.7 +14.1 79 +25  1004.8  2.6  743  278           
00 23.06.14 250 (З) 3{12}  10 км    10/10 700 м 
[Sc]
+15.7 +11.8 78 +20  1007.3  2.4  745  282           
03 23.06.14 270 (З) 4{10}  10 км    9/9 800 м 
[Sc]
+14.9 +9.6 71 +16  1009.6  2.2  747  284  +14.7      влажная 
06 23.06.14 260 (З) 3{11}  20000 м    4/4 600 м 
[Cu med, cong]
+17.9 +8.8 55 +18  1011.2  1.7  748  281           
09 23.06.14 250 (З) 4{11}  20000 м    8/6 1000 м верхняя 
[Cu med, cong|Ci fib]
+20.6 +9 47 +21  1011.4  0.4  748  279           
12 23.06.14 240 (ЮЗ) 20000 м    6/4 600 м верхняя 
[Cu med, cong|Cs]
+22.4 +9.5 44 +23  1010.4  -0.9  747  277           
15 23.06.14 160 (Ю) 2{11}  1000 м  сильн. ливневой дождь  10/8 1000 м кучево-дожд., средняя, верхняя 
[Cb cap|Ac lent|Ci fib]
+15.7 +11.9 78 +20  1011.1  0.4  748  283    +23.1     
18 23.06.14 150 (ЮВ) 10 км  {гроза, ливн. осадки}  8/0 средняя, верхняя 
[Ac cuf|Ci fib]
+15.5 +13.2 86 +23  1010.9  0.1  748  282           
21 23.06.14 140 (ЮВ) 10 км    9/5 600 м кучево-дожд., средняя, верхняя 
[Cb calv|Ac cuf|Ci fib]
+14.4 +12.1 86 +20  1011.1  -0.1  748  284           
00 24.06.14 200 (Ю) 10 км    3/0 верхняя 
[Ci fib]
+13.3 +11.1 87 +18  1010.5  -0.7  747  285           
03 24.06.14 250 (З) 20000 м    ясно 
+15.2 +11.9 81 +20  1010.7  0.3  747  283  +12.9    0.5    влажная 
06 24.06.14 260 (З) 20000 м    6/4 600 м верхняя 
[Cu med, cong|Ci fib]
+18.4 +9.7 57 +20  1010.4  0.1  747  280           
09 24.06.14 250 (З) 20000 м    8/4 600 м средняя, верхняя 
[Cu med, cong|Ac lent|Ci fib]
+20.7 +5.8 38 +21  1010  -0.3  747  279           
12 24.06.14 240 (ЮЗ) 20000 м    6/4 600 м верхняя 
[Cu med, cong|Ci fib]
+21.3 +5.7 36 +21  1009.1  -0.8  747  278           
15 24.06.14 240 (ЮЗ) 20000 м    8/4 600 м средняя, верхняя 
[Cu med, cong|Ac lent|Ci fib]
+21 +5.8 37 +21  1008.4  -0.8  746  278    +21.9       
18 24.06.14 150 (ЮВ) 10 км    3/0 средняя, верхняя 
[Ac cuf|Ci fib]
+16.5 +9 61 +18  1008.4  -0.2  746  282           
21 24.06.14 260 (З) 1{11}  10 км  в посл. час ливневой дождь  10/8 600 м кучево-дожд., средняя 
[Cb cap|Ac inh]
+13.7 +10.5 81 +17  1008  -0.5  745  284           
00 25.06.14 250 (З) 10 км  {ливн. осадки}  8/0 верхняя 
[Cs]
+13.1 +9.8 80 +15  1008.1  0.1  746  285           
03 25.06.14 270 (З) 20000 м    5/5 1000 м 
[Cu hum]
+13.2 +9.9 80 +14  1008.3  0.2  746  285  +12.4    0.8    влажная 
06 25.06.14 250 (З) 20000 м    6/6 1000 м 
[Sc diur, vesp]
+16.4 +9.8 65 +18  1009.1  0.9  746  282           
09 25.06.14 260 (З) 20000 м    8/8 1000 м 
[Sc diur, vesp]
+19.2 +5.9 42 +20  1009.4  0.4  747  280           
12 25.06.14 240 (ЮЗ) 20000 м    9/9 1000 м 
[Sc diur, vesp]
+19.7 +6.5 42 +21  1008.1  -1.2  746  279           
15 25.06.14 240 (ЮЗ) 10 км  в посл. час ливневой дождь  9/5 600 м средняя 
[Sc|Ac As]
+17.4 +8.7 57 +18  1008.4  -0.1  746  281    +20.9       
18 25.06.14 230 (ЮЗ) 1{10}  10 км  слаб. дождь{ливн. осадки}  9/0 средняя 
[Ac inh]
+14.2 +10.5 78 +17  1008.2  -0.3  746  284           
21 25.06.14 220 (ЮЗ) н/о    н/о 
+14.1 +11.2 83 +18  1007.2  -1  745  283           
00 26.06.14 240 (ЮЗ) 10 км    4/0 средняя 
[Ac As]
+13.5 +10.9 84 +17  1006.9  -0.3  745  284           
03 26.06.14 240 (ЮЗ) 20000 м    5/3 600 м средняя 
[Cu med, cong|Ac trans]
+14.7 +11.7 82 +19  1007.3  0.4  745  283  +13.3    0.3    влажная 
06 26.06.14 260 (З) 20000 м    8/5 800 м кучево-дожд., средняя, верхняя 
[Cb calv|Ac cast|Ci fib]
+16.9 +10.1 64 +19  1007.6  0.5  745  281           
09 26.06.14 240 (ЮЗ) 10 км  слаб. ливневой дождь  8/6 750 м кучево-дожд., средняя, верхняя 
[Cb cap|Ac cast|Ci fib]
+17.9 +7.5 51 +18  1007.6  0.1  745  281           
12 26.06.14 240 (ЮЗ) 4{10}  20000 м  {гроза, ливн. осадки}  6/0 кучево-дожд. 
[Cb calv]
+18.7 +6.4 45 +19  1009  1.4  746  280           
15 26.06.14 310 (СЗ) 20000 м    3/1 1000 м средняя 
[Cu hum|Ac lent]
+18.2 +7 48 +19  1011  748  281    +19.7  0.3     
18 26.06.14 360 (С) 10 км    ясно 
+14.4 +8 65 +16  1013  1.7  749  285           
21 26.06.14 270 (З) 10 км    6/6 1020 м 
[Sc]
+13.3 +9.3 77 +15  1014.3  1.3  750  287           
00 27.06.14 050 (СВ) 10 км    4/4 1000 м 
[Sc]
+12.3 +7.3 72 +14  1014.6  0.2  750  288           
03 27.06.14 050 (СВ) 20000 м    8/1 600 м верхняя 
[Sc|Ci fib]
+14.4 +6.7 60 +16  1015.2  0.6  751  286  +11.7        влажная 
06 27.06.14 310 (СЗ) 20000 м    9/5 600 м верхняя 
[Cu med, cong|Ci fib]
+16.3 +7.1 54 +18  1015.5  0.4  751  284           
09 27.06.14 070 (В) 20000 м    9/5 1000 м верхняя 
[Cu med, cong|Ci fib]
+18.2 +6.7 47 +19  1014.7  -0.7  751  282           
12 27.06.14 100 (В) 20000 м    10/6 1000 м верхняя 
[Cu med, cong|Ci fib]
+19.7 +7.4 45 +21  1013.3  -1.3  750  280           
15 27.06.14 110 (В) 20000 м  слаб. ливневой дождь  10/8 600 м кучево-дожд., средняя, верхняя 
[Cb cap|Ac lent|Ci fib]
+16.6 +10.4 67 +19  1012.5  -0.8  749  283    +20  0.0     
18 27.06.14 080 (В) 10 км  {ливн. осадки, дождь}  10/0 средняя 
[Ac lent]
+15.9 +9.1 64 +16  1011  -1.6  748  283           
21 27.06.14 100 (В) 2000 м  ливневой дождь  10/10 800 м кучево-дожд. 
[Cb calv]
+14 +9.9 76 +15  1009.4  -1.7  746  284           
00 28.06.14 090 (В) 6-11{13}  10 км  слаб. ливневой дождь  10/8 1500 м кучево-дожд., средняя 
[Cb calv|Ac cuf]
+12.9 +11.1 89 +15  1004.8  -4.5  743  284           
03 28.06.14 090 (В) 4{11}  0050 м  в посл. час гроза{ливн. осадки}  10/10 900 м кучево-дожд. 
[Cb calv]
+13.1 +11.3 89 +16  1003.1  -1.7  742  283  +12.7        мокрая 
06 28.06.14 140 (ЮВ) 20000 м  {гроза, ливн. осадки}  10/10 600 м кучево-дожд. 
[Cb calv]
+17.1 +13.5 79 +24  1002.1  -0.8  741  278           
09 28.06.14 140 (ЮВ) 20000 м    8/8 720 м кучево-дожд. 
[Cb calv]
+21.3 +14.3 64 +29  1001.4  -0.5  741  274           
12 28.06.14 170 (Ю) 20000 м  {ливн. осадки}  8/5 600 м средняя, верхняя 
[Cu med, cong|Ac inh|Ci fib]
+21.2 +14.1 64 +29  1001.1  -0.3  741  274           
15 28.06.14 230 (ЮЗ) 2{11}  10 км  в посл. час ливневой дождь  9/8 1110 м кучево-дожд., средняя 
[Cb cap|Ac cast]
+14.4 +11.3 82 +18  1002.4  741  282    +22     
18 28.06.14 210 (ЮЗ) 10 км  {ливн. осадки}  10/10 1230 м 
[Sc]
+12.7 +7.5 71 +13  1003.3  0.7  742  284           
21 28.06.14 210 (ЮЗ) 10 км    10/10 840 м 
[Sc]
+11.1 +6.6 74 +11  1002.4  -1  741  286           
00 29.06.14 170 (Ю) 10 км  слаб. дождь  10/10 300 м 
[Frnb|Ns]
+9.7 +7.7 87 +10  1001.9  -0.5  741  287           
03 29.06.14 190 (Ю) 10 км  слаб. морось{дождь}  10/10 300 м 
[St]
+9.9 +8.4 90 +10  1001.6  -0.3  741  286  +9.6    0.0    мокрая 
06 29.06.14 180 (Ю) 4000 м  дождь{морось}  10/10 210 м 
[Frnb|Ns]
+9.9 +8.7 92 +11  1002.5  0.8  741  287           
09 29.06.14 230 (ЮЗ) 10 км  слаб. дождь  10/10 360 м 
[Frnb|Ns]
+10.8 +9.2 90 +11  1004  1.5  742  286           
12 29.06.14 250 (З) 10 км  в посл. час дождь  10/10 570 м 
[Sc]
+10.9 +9.1 89 +11  1005.6  1.6  744  286           
15 29.06.14 280 (З) 5-10{10}  10 км  в посл. час дождь{морось}  10/10 270 м 
[St]
+11.7 +10 89 +12  1007.2  1.6  745  286    +11.9     
18 29.06.14 290 (З) 4{11}  10 км  {дождь, морось}  10/10 420 м 
[St]
+10.6 +8.5 87 +10  1010.3  2.9  747  288           
21 29.06.14 290 (З) 10 км    10/10 330 м 
[Sc]
+9.4 +7.5 88 +8  1012.3  1.9  748  290           
00 30.06.14 290 (З) 5{11}  10 км  слаб. морось  10/10 570 м 
[St]
+9.3 +6.9 85 +8  1013.7  1.4  749  291           
03 30.06.14 290 (З) 4{10}  10 км  {дождь}  10/10 660 м 
[Sc]
+9.8 +6.4 79 +9  1016  2.3  751  291  +9.2    0.0    влажная 
06 30.06.14 300 (СЗ) 4{11}  20000 м  {дождь}  4/4 1020 м 
[Cu med, cong]
+13.7 +5.4 57 +13  1017.4  1.5  752  288           
09 30.06.14 290 (З) 5{12}  20000 м    5/4 1000 м верхняя 
[Cu med, cong|Ci fib]
+17.1 +5.8 47 +17  1018.2  753  285           
12 30.06.14 290 (З) 5{10}  20000 м    4/1 1000 м средняя, верхняя 
[Cu hum|Ac lent|Ci fib]
+18.4 +5.6 43 +19  1018.3  0.2  753  283           
15 30.06.14 270 (З) 20000 м    9/1 1000 м средняя, верхняя 
[Cu hum|Ac As|Ci fib]
+18.3 +7.2 48 +19  1018.6  0.3  753  283    +19       
18 30.06.14 310 (СЗ) 10 км  слаб. дождь  10/5 600 м средняя 
[Sc|As op]
+17.3 +6.9 50 +19  1019.4  0.7  754  285           
21 30.06.14 тихо ()   10 км  {дождь}  10/0 средняя 
[Ac As]
+14.4 +10.2 76 +16  1019.6  0.1  754  287           
00 01.07.14 160 (Ю) 10 км  {дождь}  10/0 средняя 
[Ac As]
+14.9 +10.5 75 +18  1019.3  -0.3  754  286           
03 01.07.14 220 (ЮЗ) 10 км    4/0 средняя 
[Ac lent]
+17.1 +11.6 70 +21  1019.3  0.1  754  284  +14    0.0    влажная 
Время (UTC), дата Ветер
(°,м/с) 
Видим.   Явления Облачность Т
(°С)
Тd
(°С)
f(%) Тe
(°С)
Pmin
(гПа)
dP
(гПа)
Po
(мм)
O2
(г/м3)
Тmin Tmax R s Состояние
почвы